Location: *
(35.8942°N, 23.3025°E)
Time: 21:28:37
(UTC+00:00)

N. Korean satellite - Pass Details

Date: 02 December 2022
Orbit: 407 x 442 km, 97.3° (Epoch: 05 February)

Event Time Altitude Azimuth Distance (km) Brightness Sun altitude
Rises 04:46:23 0° 346° (NNW) 2,515 9.8 -6.9°
Reaches altitude 10° 04:49:39 10° 313° (NW) 1,624 8.6 -6.3°
Maximum altitude 04:50:52 12° 292° (WNW) 1,528 8.4 -6.1°
Drops below altitude 10° 04:52:03 10° 272° (W) 1,612 8.6 -5.8°
Sets 04:55:17 0° 238° (WSW) 2,466 9.8 -5.2°
